Hourly Weather Golaszewo

Today, 17 May, Monday

Time Temperature Precipitation Wind Pressure Humidity
00:00 +9°C° 0 mm 2 mps 745 mmHg 91%
01:00 +9°C° 0 mm 2 mps 745 mmHg 91%
02:00 +8°C° 0 mm 2 mps 745 mmHg 91%
03:00 +8°C° 0 mm 2 mps 744 mmHg 91%
04:00 +8°C° 0 mm 2 mps 744 mmHg 92%
05:00 +10°C° 0 mm 3 mps 745 mmHg 87%
06:00 +11°C° 0 mm 3 mps 745 mmHg 83%
07:00 +13°C° 0 mm 3 mps 745 mmHg 79%
08:00 +14°C° 0.1 mm 3 mps 745 mmHg 74%
09:00 +17°C° 0.1 mm 3 mps 745 mmHg 69%
10:00 +18°C° 0.1 mm 3 mps 745 mmHg 64%
11:00 +18°C° 0.4 mm 3 mps 745 mmHg 64%
12:00 +18°C° 0.4 mm 3 mps 745 mmHg 64%
13:00 +19°C° 0.4 mm 3 mps 745 mmHg 64%
14:00 +18°C° 0.4 mm 3 mps 744 mmHg 67%
15:00 +18°C° 0.4 mm 2 mps 744 mmHg 71%
16:00 +17°C° 0.4 mm 2 mps 744 mmHg 74%
17:00 +16°C° 1.3 mm 2 mps 745 mmHg 81%
18:00 +13°C° 1.3 mm 3 mps 745 mmHg 88%
19:00 +12°C° 1.3 mm 3 mps 745 mmHg 95%
20:00 +11°C° 1.4 mm 3 mps 745 mmHg 95%
21:00 +12°C° 1.4 mm 2 mps 745 mmHg 96%
22:00 +12°C° 1.4 mm 2 mps 745 mmHg 96%
23:00 +12°C° 2.3 mm 2 mps 745 mmHg 96%

Tomorrow, 18 May, Tuesday

Time Temperature Precipitation Wind Pressure Humidity
00:00 +12°C° 2.3 mm 2 mps 745 mmHg 97%
01:00 +10°C° 2.3 mm 2 mps 745 mmHg 97%
02:00 +10°C° 1.7 mm 2 mps 745 mmHg 97%
03:00 +10°C° 1.7 mm 2 mps 745 mmHg 97%
04:00 +11°C° 1.7 mm 1 mps 745 mmHg 97%
05:00 +10°C° 0.5 mm 2 mps 746 mmHg 96%
06:00 +12°C° 0.5 mm 2 mps 746 mmHg 96%
07:00 +11°C° 0.5 mm 3 mps 746 mmHg 95%
08:00 +11°C° 0.2 mm 3 mps 746 mmHg 92%
09:00 +12°C° 0.2 mm 3 mps 746 mmHg 90%
10:00 +13°C° 0.2 mm 4 mps 747 mmHg 87%
11:00 +13°C° 0.5 mm 4 mps 747 mmHg 86%
12:00 +13°C° 0.5 mm 4 mps 747 mmHg 86%
13:00 +13°C° 0.5 mm 5 mps 747 mmHg 85%
14:00 +13°C° 0.5 mm 4 mps 747 mmHg 85%
15:00 +13°C° 0.5 mm 4 mps 747 mmHg 85%
16:00 +14°C° 0.5 mm 3 mps 747 mmHg 84%
17:00 +13°C° 0.2 mm 3 mps 748 mmHg 86%
18:00 +13°C° 0.2 mm 3 mps 748 mmHg 87%
19:00 +13°C° 0.2 mm 2 mps 748 mmHg 89%
20:00 +12°C° 0 mm 2 mps 748 mmHg 91%
21:00 +12°C° 0 mm 2 mps 748 mmHg 92%
22:00 +10°C° 0 mm 3 mps 748 mmHg 94%
23:00 +10°C° 0 mm 2 mps 748 mmHg 95%

Day after tomorrow, 19 May, Wednesday

Time Temperature Precipitation Wind Pressure Humidity
00:00 +9°C° 0 mm 2 mps 749 mmHg 95%
01:00 +9°C° 0 mm 2 mps 749 mmHg 96%
02:00 +8°C° 0.3 mm 2 mps 749 mmHg 96%
03:00 +8°C° 0.3 mm 2 mps 749 mmHg 97%
04:00 +8°C° 0.3 mm 2 mps 749 mmHg 98%
05:00 +9°C° 0 mm 3 mps 750 mmHg 94%
06:00 +10°C° 0 mm 3 mps 750 mmHg 91%
07:00 +11°C° 0 mm 4 mps 750 mmHg 87%
08:00 +12°C° 0 mm 4 mps 750 mmHg 80%
09:00 +14°C° 0 mm 4 mps 750 mmHg 73%
10:00 +15°C° 0 mm 4 mps 750 mmHg 66%
11:00 +15°C° 0.2 mm 4 mps 750 mmHg 68%
12:00 +14°C° 0.2 mm 4 mps 750 mmHg 70%
13:00 +14°C° 0.2 mm 5 mps 751 mmHg 72%
14:00 +14°C° 0.3 mm 4 mps 751 mmHg 71%
15:00 +15°C° 0.3 mm 4 mps 751 mmHg 70%
16:00 +15°C° 0.3 mm 4 mps 751 mmHg 69%
17:00 +14°C° 0.3 mm 4 mps 751 mmHg 75%
18:00 +13°C° 0.3 mm 3 mps 751 mmHg 81%
19:00 +12°C° 0.3 mm 2 mps 751 mmHg 86%
20:00 +10°C° 0 mm 2 mps 751 mmHg 89%
21:00 +10°C° 0 mm 2 mps 752 mmHg 91%
22:00 +9°C° 0 mm 2 mps 752 mmHg 93%
23:00 +8°C° 0 mm 3 mps 752 mmHg 94%

20 May, Thursday

Time Temperature Precipitation Wind Pressure Humidity
00:00 +8°C° 0 mm 3 mps 752 mmHg 94%
01:00 +7°C° 0 mm 3 mps 752 mmHg 95%
02:00 +7°C° 0 mm 3 mps 752 mmHg 94%
03:00 +5°C° 0 mm 3 mps 753 mmHg 93%
04:00 +4°C° 0 mm 3 mps 753 mmHg 93%
05:00 +7°C° 0 mm 3 mps 753 mmHg 88%
06:00 +7°C° 0 mm 4 mps 753 mmHg 84%
07:00 +8°C° 0 mm 4 mps 753 mmHg 80%
08:00 +10°C° 0 mm 5 mps 753 mmHg 73%
09:00 +12°C° 0 mm 5 mps 753 mmHg 67%
10:00 +14°C° 0 mm 6 mps 753 mmHg 61%
11:00 +15°C° 0 mm 6 mps 753 mmHg 58%
12:00 +16°C° 0 mm 6 mps 753 mmHg 55%
13:00 +16°C° 0 mm 6 mps 753 mmHg 51%
14:00 +16°C° 0.1 mm 6 mps 753 mmHg 56%
15:00 +15°C° 0.1 mm 6 mps 753 mmHg 61%
16:00 +15°C° 0.1 mm 7 mps 753 mmHg 65%
17:00 +13°C° 0.1 mm 6 mps 753 mmHg 68%
18:00 +11°C° 0.1 mm 6 mps 753 mmHg 71%
19:00 +10°C° 0.1 mm 6 mps 754 mmHg 73%
20:00 +9°C° 0 mm 5 mps 754 mmHg 75%
21:00 +7°C° 0 mm 5 mps 754 mmHg 77%
22:00 +6°C° 0 mm 4 mps 755 mmHg 79%
23:00 +5°C° 0 mm 4 mps 755 mmHg 81%

21 May, Friday

Time Temperature Precipitation Wind Pressure Humidity
00:00 +5°C° 0 mm 4 mps 755 mmHg 84%
01:00 +4°C° 0 mm 4 mps 755 mmHg 87%
02:00 +4°C° 0 mm 4 mps 755 mmHg 87%
03:00 +4°C° 0 mm 4 mps 755 mmHg 87%
04:00 +3°C° 0 mm 4 mps 755 mmHg 87%
05:00 +5°C° 0 mm 5 mps 755 mmHg 82%
06:00 +6°C° 0 mm 5 mps 755 mmHg 77%
07:00 +7°C° 0 mm 6 mps 755 mmHg 72%
08:00 +8°C° 0 mm 6 mps 755 mmHg 67%
09:00 +9°C° 0 mm 6 mps 755 mmHg 61%
10:00 +10°C° 0 mm 6 mps 755 mmHg 56%
11:00 +11°C° 0 mm 7 mps 754 mmHg 55%
12:00 +12°C° 0 mm 7 mps 754 mmHg 54%
13:00 +14°C° 0 mm 7 mps 754 mmHg 53%
14:00 +14°C° 0 mm 6 mps 754 mmHg 55%
15:00 +13°C° 0 mm 5 mps 754 mmHg 57%
16:00 +13°C° 0 mm 5 mps 754 mmHg 60%
17:00 +12°C° 0 mm 4 mps 753 mmHg 65%
18:00 +12°C° 0 mm 3 mps 753 mmHg 70%
19:00 +12°C° 0 mm 2 mps 753 mmHg 76%
20:00 +10°C° 0 mm 2 mps 752 mmHg 77%
21:00 +10°C° 0 mm 2 mps 752 mmHg 79%
22:00 +9°C° 0 mm 3 mps 752 mmHg 80%
23:00 +9°C° 0.3 mm 3 mps 752 mmHg 85%

22 May, Saturday

Time Temperature Precipitation Wind Pressure Humidity
00:00 +9°C° 0.3 mm 3 mps 752 mmHg 90%
01:00 +9°C° 0.3 mm 3 mps 751 mmHg 95%
02:00 +9°C° 0.3 mm 2 mps 751 mmHg 95%
03:00 +9°C° 0.3 mm 2 mps 751 mmHg 95%
04:00 +9°C° 0.3 mm 2 mps 751 mmHg 96%
05:00 +10°C° 0.1 mm 3 mps 750 mmHg 92%
06:00 +11°C° 0.1 mm 3 mps 750 mmHg 88%
07:00 +12°C° 0.1 mm 4 mps 750 mmHg 83%
08:00 +14°C° 0 mm 5 mps 750 mmHg 76%
09:00 +15°C° 0 mm 5 mps 749 mmHg 69%
10:00 +17°C° 0 mm 6 mps 749 mmHg 61%
11:00 +17°C° 0 mm 6 mps 749 mmHg 61%
12:00 +19°C° 0 mm 6 mps 749 mmHg 60%
13:00 +20°C° 0 mm 6 mps 749 mmHg 60%
14:00 +19°C° 0.4 mm 5 mps 749 mmHg 66%
15:00 +17°C° 0.4 mm 5 mps 749 mmHg 73%
16:00 +16°C° 0.4 mm 5 mps 749 mmHg 79%
17:00 +15°C° 0.5 mm 4 mps 750 mmHg 83%
18:00 +14°C° 0.5 mm 4 mps 750 mmHg 87%
19:00 +12°C° 0.5 mm 3 mps 750 mmHg 91%
20:00 +12°C° 0 mm 3 mps 750 mmHg 91%
21:00 +11°C° 0 mm 3 mps 750 mmHg 92%
22:00 +12°C° 0 mm 2 mps 751 mmHg 92%
23:00 +12°C° 0 mm 2 mps 751 mmHg 92%
Show more